Weather History for Michigan City, IN

Change the Weather History Date:

Tuesday, November 20, 2012

  Actual Average (KVPZ) Record (KVPZ)
Temperature  
Mean Temperature 44 °F 39 °F  
Max Temperature 51 °F 46 °F 63 °F (2003)
Min Temperature 37 °F 31 °F 20 °F (2000)
Degree Days  
Heating Degree Days 21 26  
Month to date heating degree days 437  
Since 1 July heating degree days 967  
Cooling Degree Days 0 0  
Month to date cooling degree days 0  
Year to date cooling degree days 713  
Moisture  
Dew Point 41 °F    
Average Humidity 86    
Maximum Humidity 100    
Minimum Humidity 62    
Precipitation  
Precipitation 0.00 in 0.10 in 0.08 in (2013)
Month to date precipitation 2.33  
Year to date precipitation 34.33  
Sea Level Pressure  
Sea Level Pressure 30.12 in    
Wind  
Wind Speed 2 mph ()    
Max Wind Speed 10 mph    
Max Gust Speed -    
Visibility 5.3 miles    
Events Fog , Rain    
T = Trace of Precipitation, MM = Missing Value Source: Averaged Metar Reports

Daily Weather History Graph

Daily Weather History Graph

Search for Another Location

Airport:

Trip Planner

Search our weather history database for the weather conditions in past years. The results will help you decide how hot, cold, wet, or windy it might be!

Date:

Astronomy

Nov. 20, 2012 Rise Set
Actual Time 6:43 AM CST 4:22 PM CST
Civil Twilight 6:12 AM CST 4:52 PM CST
Nautical Twilight 5:38 AM CST 5:26 PM CST
Astronomical Twilight 5:05 AM CST 5:59 PM CST
Moon 12:14 PM CST (11/20) 11:57 PM CST (11/20)
Length of Visible Light 10h 40m
Length of Day
9h 39m
First Quarter, 51% of the Moon is Illuminated
Nov 20
First Quarter
Nov 28
Full
Dec 6
Last Quarter
Dec 13
New
Dec 19
First Quarter

Hourly Weather History & Observations

Time (CST) Temp. Windchill Dew Point Humidity Pressure Visibility Wind Dir Wind Speed Gust Speed Precip Events Conditions
12:15 AM 48.2 °F - 37.4 °F 66% 30.13 in 10.0 mi SW 6.9 mph - N/A   Overcast
12:35 AM 50.0 °F - 37.4 °F 62% 30.13 in 10.0 mi SW 10.4 mph - N/A Rain Rain
12:55 AM 46.4 °F 44.3 °F 41.0 °F 81% 30.13 in 7.0 mi SSW 4.6 mph - N/A Rain Rain
1:15 AM 46.4 °F - 41.0 °F 81% 30.12 in 10.0 mi Calm Calm - N/A Rain Light Rain
1:35 AM 46.4 °F - 41.0 °F 81% 30.12 in 7.0 mi Calm Calm - N/A Rain Light Rain
1:55 AM 44.6 °F - 42.8 °F 93% 30.12 in 7.0 mi Calm Calm - N/A Rain Light Rain
2:15 AM 44.6 °F - 42.8 °F 93% 30.12 in 5.0 mi Calm Calm - N/A Rain Light Rain
2:35 AM 44.6 °F - 42.8 °F 93% 30.11 in 4.0 mi Calm Calm - N/A   Overcast
5:55 AM 48.2 °F - 39.2 °F 71% 30.09 in 10.0 mi South 3.5 mph - N/A   Overcast
6:15 AM 48.2 °F - 39.2 °F 71% 30.09 in 10.0 mi South 3.5 mph - N/A   Overcast
6:35 AM 46.4 °F 45.2 °F 41.0 °F 81% 30.09 in 10.0 mi SSW 3.5 mph - N/A   Overcast
6:55 AM 46.4 °F 44.3 °F 41.0 °F 81% 30.09 in 10.0 mi SSW 4.6 mph - N/A   Overcast
7:15 AM 46.4 °F 45.2 °F 39.2 °F 76% 30.09 in 10.0 mi SSW 3.5 mph - N/A   Overcast
7:35 AM 46.4 °F 44.3 °F 41.0 °F 81% 30.10 in 10.0 mi SSW 4.6 mph - N/A   Overcast
7:55 AM 48.2 °F - 41.0 °F 76% 30.10 in 10.0 mi Calm Calm - N/A   Overcast
8:15 AM 48.2 °F - 41.0 °F 76% 30.11 in 10.0 mi Calm Calm - N/A   Overcast
8:35 AM 48.2 °F - 41.0 °F 76% 30.11 in 10.0 mi Calm Calm - N/A   Overcast
8:55 AM 48.2 °F - 41.0 °F 76% 30.10 in 10.0 mi Calm Calm - N/A   Overcast
9:15 AM 50.0 °F - 41.0 °F 71% 30.11 in 10.0 mi Calm Calm - N/A   Overcast
9:35 AM 50.0 °F - 41.0 °F 71% 30.11 in 10.0 mi Calm Calm - N/A   Overcast
9:55 AM 50.0 °F - 41.0 °F 71% 30.11 in 10.0 mi Calm Calm - N/A   Overcast
10:15 AM 50.0 °F - 42.8 °F 76% 30.11 in 10.0 mi Calm Calm - N/A   Overcast
10:35 AM 51.8 °F - 42.8 °F 71% 30.10 in 10.0 mi WNW 3.5 mph - N/A   Overcast
10:55 AM 50.0 °F - 42.8 °F 76% 30.10 in 10.0 mi Calm Calm - N/A   Overcast
11:15 AM 51.8 °F - 42.8 °F 71% 30.09 in 10.0 mi Calm Calm - N/A   Overcast
11:35 AM 51.8 °F - 42.8 °F 71% 30.08 in 7.0 mi West 3.5 mph - N/A   Overcast
11:55 AM 50.0 °F - 42.8 °F 76% 30.08 in 7.0 mi WNW 3.5 mph - N/A   Overcast
12:15 PM 50.0 °F - 42.8 °F 76% 30.09 in 7.0 mi NW 5.8 mph - N/A   Overcast
12:35 PM 50.0 °F - 42.8 °F 76% 30.09 in 7.0 mi West 5.8 mph - N/A   Overcast
12:55 PM 50.0 °F - 44.6 °F 82% 30.09 in 7.0 mi NW 3.5 mph - N/A   Overcast
1:15 PM 50.0 °F - 44.6 °F 82% 30.09 in 5.0 mi NW 4.6 mph - N/A   Haze
1:35 PM 50.0 °F - 44.6 °F 82% 30.09 in 5.0 mi Calm Calm - N/A   Haze
2:15 PM 48.2 °F - 44.6 °F 87% 30.08 in 5.0 mi Calm Calm - N/A   Overcast
2:35 PM 48.2 °F - 44.6 °F 87% 30.09 in 4.0 mi Calm Calm - N/A   Overcast
2:55 PM 48.2 °F - 44.6 °F 87% 30.09 in 4.0 mi NNW 3.5 mph - N/A   Overcast
3:15 PM 48.2 °F - 44.6 °F 87% 30.10 in 3.0 mi Calm Calm - N/A   Overcast
3:35 PM 48.2 °F - 44.6 °F 87% 30.11 in 3.0 mi NNW 3.5 mph - N/A   Overcast
3:55 PM 46.4 °F - 44.6 °F 93% 30.11 in 3.0 mi Calm Calm - N/A   Overcast
4:15 PM 46.4 °F 45.2 °F 44.6 °F 93% 30.12 in 3.0 mi NW 3.5 mph - N/A   Overcast
4:35 PM 48.2 °F - 44.6 °F 87% 30.12 in 4.0 mi NNW 4.6 mph - N/A   Overcast
4:55 PM 46.4 °F 43.5 °F 44.6 °F 93% 30.12 in 4.0 mi North 5.8 mph - N/A   Overcast
5:15 PM 46.4 °F - 44.6 °F 93% 30.13 in 4.0 mi Calm Calm - N/A   Overcast
5:35 PM 44.6 °F - 44.6 °F 100% 30.14 in 3.0 mi Calm Calm - N/A   Scattered Clouds
5:55 PM 44.6 °F - 44.6 °F 100% 30.14 in 2.5 mi Calm Calm - N/A   Mostly Cloudy
6:15 PM 42.8 °F - 41.0 °F 93% 30.14 in 0.5 mi Calm Calm - N/A Fog Fog
6:35 PM 41.0 °F - 41.0 °F 100% 30.15 in 0.2 mi Calm Calm - N/A Fog Fog
6:55 PM 42.8 °F - 42.8 °F 100% 30.15 in 0.2 mi Calm Calm - N/A Fog Fog
7:15 PM 39.2 °F - 37.4 °F 93% 30.15 in 0.2 mi Calm Calm - N/A Fog Fog
7:35 PM 41.0 °F - 39.2 °F 93% 30.15 in - Calm Calm - N/A   Overcast
7:55 PM 41.0 °F - 39.2 °F 93% 30.15 in 0.2 mi Calm Calm - N/A Fog Fog
8:15 PM 37.4 °F - 35.6 °F 93% 30.16 in 0.2 mi Calm Calm - N/A Fog Fog
8:35 PM 37.4 °F - 35.6 °F 93% 30.17 in 0.2 mi Calm Calm - N/A Fog Fog
8:55 PM 37.4 °F - 37.4 °F 100% 30.17 in 0.2 mi Calm Calm - N/A Fog Fog
9:15 PM 37.4 °F - 37.4 °F 100% 30.17 in 0.2 mi Calm Calm - N/A Fog Fog
9:35 PM 37.4 °F - 37.4 °F 100% 30.18 in 0.2 mi Calm Calm - N/A Fog Fog
9:55 PM 37.4 °F 34.9 °F 37.4 °F 100% 30.17 in 0.2 mi SE 3.5 mph - N/A Fog Fog
10:15 PM 37.4 °F - 37.4 °F 100% 30.17 in 0.2 mi Calm Calm - N/A Fog Fog
10:35 PM 39.2 °F - 39.2 °F 100% 30.17 in 0.2 mi Calm Calm - N/A Fog Fog
10:55 PM 37.4 °F - 37.4 °F 100% 30.17 in 0.2 mi Calm Calm - N/A Fog Fog
11:15 PM 37.4 °F - 37.4 °F 100% 30.17 in 0.2 mi Calm Calm - N/A Fog Fog
11:35 PM 37.4 °F - 37.4 °F 100% 30.17 in 0.2 mi Calm Calm - N/A Fog Fog
11:55 PM 37.4 °F - 37.4 °F 100% 30.18 in 0.2 mi Calm Calm - N/A Fog Fog